TimeAKDT,TemperatureF,Dew PointF,Humidity,Sea Level PressureIn,VisibilityMPH,Wind Direction,Wind SpeedMPH,Gust SpeedMPH,PrecipitationIn,Events,Conditions,WindDirDegrees,DateUTC
12:53 AM,26.1,24.1,92,30.10,10.0,Calm,Calm,-,N/A,,Clear,0,2012-10-01 08:53:00
1:53 AM,26.1,23.0,88,30.11,10.0,Calm,Calm,-,N/A,,Clear,0,2012-10-01 09:53:00
2:53 AM,24.1,21.0,88,30.12,10.0,Calm,Calm,-,N/A,,Clear,0,2012-10-01 10:53:00
3:53 AM,24.1,21.0,88,30.13,10.0,Calm,Calm,-,N/A,,Clear,0,2012-10-01 11:53:00
4:53 AM,21.9,19.0,89,30.15,10.0,Calm,Calm,-,N/A,,Clear,0,2012-10-01 12:53:00
5:53 AM,21.9,18.0,85,30.17,10.0,Calm,Calm,-,N/A,,Clear,0,2012-10-01 13:53:00
6:53 AM,21.9,18.0,85,30.20,10.0,Calm,Calm,-,N/A,,Clear,0,2012-10-01 14:53:00
7:53 AM,19.9,17.1,89,30.22,10.0,Calm,Calm,-,N/A,,Clear,0,2012-10-01 15:53:00
8:53 AM,21.9,18.0,85,30.24,10.0,Calm,Calm,-,N/A,,Clear,0,2012-10-01 16:53:00
9:53 AM,25.0,21.0,85,30.26,10.0,Calm,Calm,-,N/A,,Clear,0,2012-10-01 17:53:00
10:53 AM,30.9,23.0,72,30.28,10.0,NE,3.5,-,N/A,,Clear,50,2012-10-01 18:53:00
11:53 AM,36.0,25.0,64,30.29,10.0,Calm,Calm,-,N/A,,Clear,0,2012-10-01 19:53:00
12:53 PM,37.0,27.0,67,30.30,10.0,Variable,3.5,-,N/A,,Clear,0,2012-10-01 20:53:00
1:53 PM,39.9,27.0,60,30.31,10.0,Calm,Calm,-,N/A,,Clear,0,2012-10-01 21:53:00
2:53 PM,41.0,24.1,51,30.32,10.0,Calm,Calm,-,N/A,,Clear,0,2012-10-01 22:53:00
3:53 PM,42.1,21.0,43,30.32,10.0,Calm,Calm,-,N/A,,Partly Cloudy,0,2012-10-01 23:53:00
4:53 PM,42.1,24.1,49,30.34,10.0,Calm,Calm,-,N/A,,Partly Cloudy,0,2012-10-02 00:53:00
5:53 PM,43.0,24.1,47,30.34,10.0,Calm,Calm,-,N/A,,Overcast,0,2012-10-02 01:53:00
6:53 PM,42.1,25.0,51,30.36,10.0,Calm,Calm,-,N/A,,Overcast,0,2012-10-02 02:53:00
7:53 PM,37.9,28.0,68,30.37,10.0,Calm,Calm,-,N/A,,Overcast,0,2012-10-02 03:53:00
8:53 PM,37.0,30.0,76,30.38,10.0,Calm,Calm,-,N/A,,Overcast,0,2012-10-02 04:53:00
9:53 PM,35.1,28.0,76,30.39,10.0,NE,3.5,-,N/A,,Overcast,50,2012-10-02 05:53:00
10:53 PM,37.0,26.1,65,30.40,10.0,Calm,Calm,-,N/A,,Overcast,0,2012-10-02 06:53:00
11:53 PM,37.0,27.0,67,30.40,10.0,Calm,Calm,-,N/A,,Overcast,0,2012-10-02 07:53:00